Wind_Speed
4 5 5 4 4 4 4 4 3 2 2 3 3 3 3 4 4 5 5 5 5 5 6 6 6 6 7 7 7 6 6 7 7 7 7 7 7 7 8 9 9 10 10
4 4 4 4 4 4 4 4 3 3 2 3 4 4 5 4 4 5 5 6 5 6 7 7 7 7 8 8 9 9 8 8 8 8 8 8 9 9 9 9 9 9 10
4 4 4 4 4 4 4 4 4 4 3 4 4 5 4 4 4 4 5 6 7 7 7 7 7 8 8 8 8 8 8 8 8 8 9 9 9 10 10 10 9 9 10
4 4 4 4 4 4 4 4 5 4 4 5 5 5 5 4 4 4 6 7 8 8 8 8 7 7 8 8 7 7 8 8 8 8 8 9 9 9 9 10 10 9 10
4 4 4 4 4 4 4 4 5 4 5 5 5 5 5 5 4 5 7 8 8 8 8 8 8 9 8 8 7 8 8 9 9 9 9 9 9 9 9 9 9 9 9
4 4 4 4 4 4 5 5 5 5 6 6 5 5 6 6 6 7 8 8 8 9 9 9 10 9 9 9 9 10 10 9 9 9 10 10 10 10 9 10 9 9 10
4 4 4 4 5 4 4 5 5 6 6 6 5 5 6 7 7 7 8 8 9 9 9 10 11 10 9 10 10 10 10 11 10 10 10 10 11 11 11 11 10 10 11
5 4 4 4 5 5 4 5 5 6 6 6 6 6 7 7 8 7 7 8 8 8 9 10 10 10 10 10 10 11 11 11 12 12 12 12 12 12 12 12 12 11 11
5 5 5 6 5 5 5 6 6 6 7 6 6 7 7 7 7 7 8 8 9 9 9 10 11 11 11 11 11 11 12 12 13 13 14 14 14 14 14 13 13 13 12
5 5 6 6 6 6 6 7 7 7 7 7 7 8 8 9 9 8 8 9 9 10 10 10 11 11 12 12 12 12 12 13 13 14 14 14 15 15 15 14 14 14 14
5 6 6 7 7 7 7 8 8 8 8 8 8 8 9 9 10 10 10 11 11 11 11 11 12 12 13 13 14 13 13 14 14 15 15 15 15 16 15 14 15 15 15
6 6 7 7 7 8 8 9 9 9 9 9 9 10 10 10 11 11 11 11 12 12 12 12 13 13 13 14 15 15 14 14 16 16 15 15 15 16 15 16 16 16 16
7 7 7 8 8 9 9 9 9 9 10 10 10 11 11 11 12 12 13 13 14 13 13 14 14 14 15 15 15 15 15 15 15 15 15 14 15 15 15 16 17 17 17
9 9 8 9 10 9 9 10 10 10 11 11 11 11 12 13 13 14 14 14 14 13 13 14 14 14 15 16 16 16 16 15 15 14 15 15 15 16 16 17 18 18 19
9 10 10 10 10 10 10 10 10 10 11 11 12 12 13 13 14 14 15 14 13 13 13 14 14 14 15 16 16 17 17 16 15 15 16 16 16 17 18 18 18 19 20
10 10 10 10 10 11 12 11 11 11 12 12 12 12 13 13 14 15 14 14 14 14 14 14 14 15 15 16 17 17 17 17 17 17 17 16 17 17 19 19 19 19 20
11 11 11 11 12 12 13 13 13 13 13 13 13 13 13 14 14 15 15 16 16 16 16 15 15 15 15 16 17 18 18 18 18 18 18 17 18 18 18 19 19 19 20
13 13 13 13 14 15 15 15 15 15 15 15 15 15 15 15 15 16 16 17 17 17 18 17 17 17 17 17 17 18 18 18 18 18 18 18 18 19 19 19 19 20 20
15 15 15 16 17 17 18 18 18 18 18 18 18 17 17 17 17 17 18 18 19 19 19 19 18 18 18 18 19 19 19 19 18 19 18 19 19 20 20 20 20 21 21
16 17 17 18 18 19 19 19 20 20 19 19 19 19 19 19 19 19 19 19 20 20 20 20 20 20 19 19 20 20 20 20 20 20 20 20 21 21 21 21 21 22 22
17 18 19 19 20 20 21 21 21 21 21 21 21 21 21 20 20 20 20 20 20 20 20 20 21 21 21 20 20 21 21 21 21 22 22 22 22 22 22 22 22 22 22
20 21 21 22 22 23 23 23 22 22 22 23 23 23 23 22 21 21 22 21 21 21 21 21 22 22 22 22 22 22 22 22 22 22 23 23 23 23 23 23 23 23 23
23 24 24 24 24 25 25 25 24 24 25 25 25 25 24 24 24 23 23 23 23 23 23 23 23 24 24 24 24 24 24 23 23 23 24 24 24 24 25 25 25 25 24
26 27 26 26 27 26 26 26 26 26 27 27 27 26 25 25 25 24 24 24 24 24 24 25 25 25 25 25 25 25 25 25 25 24 25 25 25 26 27 26 26 26 26
29 29 29 28 27 27 28 28 28 28 28 27 27 27 26 26 25 25 25 24 24 25 26 26 26 26 26 26 26 26 26 26 26 26 27 27 27 28 27 27 27 28 28
30 30 29 29 29 29 30 30 29 29 29 28 27 27 27 26 26 26 25 25 25 25 25 26 26 26 27 27 27 27 27 27 27 27 27 28 29 29 29 28 28 29 29
Wind_Direction
75 72 56 47 39 34 22 20 8 16 17 356 342 322 297 285 280 281 284 280 274 277 279 272 269 275 274 267 262 259 258 261 259 258 258 260 263 263 261 265 263 258 255
67 55 37 32 34 21 10 9 358 358 345 337 321 313 310 296 297 287 281 277 283 288 286 279 272 274 275 270 269 263 259 261 261 261 261 263 263 260 260 261 264 263 256
54 36 21 14 7 2 11 4 352 352 340 334 322 322 321 323 307 294 285 281 292 294 287 285 279 274 274 274 276 268 258 263 267 266 264 264 263 262 261 261 259 263 259
36 19 4 358 357 353 358 355 353 341 335 334 335 335 330 320 309 291 285 286 288 287 286 282 283 277 277 273 273 270 263 264 269 272 267 267 264 262 264 261 256 258 261
22 8 2 358 353 348 348 345 337 330 331 332 333 336 331 314 307 299 303 300 292 285 284 285 281 277 279 273 269 268 267 267 266 269 268 267 263 262 262 260 262 262 263
3 1 357 354 346 344 342 332 325 334 333 333 328 327 321 310 303 301 302 301 293 286 286 286 284 279 276 275 269 269 268 270 262 261 262 262 262 262 262 260 262 262 264
356 357 355 354 349 343 339 328 322 323 326 330 327 323 317 310 306 304 303 296 290 290 289 291 290 282 278 276 273 271 271 268 263 261 259 260 261 260 259 258 261 262 263
348 343 343 340 340 338 331 326 322 321 321 323 319 315 317 310 305 303 303 301 299 295 288 288 292 286 282 278 273 269 271 269 265 266 260 258 259 259 259 259 261 262 263
343 339 333 328 333 327 319 322 323 323 320 316 309 308 307 306 305 302 300 300 302 301 298 295 294 290 282 280 276 272 271 273 271 268 265 261 259 258 258 259 262 264 263
342 340 337 331 322 319 318 316 313 313 314 315 312 307 307 307 304 297 296 298 298 297 297 294 290 288 283 280 279 275 274 274 269 271 272 267 262 259 258 259 260 262 264
338 337 333 331 325 319 314 311 309 309 310 310 307 304 303 304 305 303 301 300 297 294 291 289 287 287 284 279 277 279 277 275 274 275 274 270 263 259 261 260 264 263 265
332 332 326 325 325 320 316 313 312 311 310 307 303 304 305 306 306 306 304 299 296 295 293 289 287 285 285 282 282 279 280 281 277 276 273 268 265 263 262 262 265 267 270
327 324 321 322 318 315 314 312 311 310 308 308 305 306 307 308 307 306 306 304 298 294 291 288 286 285 285 284 283 281 281 283 279 273 272 270 268 263 263 263 266 267 269
332 331 326 327 328 328 327 323 318 315 311 307 306 307 311 311 309 308 307 305 301 296 294 289 285 284 283 284 284 285 286 284 282 279 275 271 269 264 267 267 268 268 267
325 325 323 323 324 325 325 325 325 320 315 311 309 309 311 312 312 312 312 310 305 298 295 293 291 288 286 286 285 285 283 282 281 281 279 278 276 271 271 271 271 270 268
315 317 319 317 317 317 319 319 320 321 321 317 313 311 312 311 308 308 310 310 308 306 301 297 295 293 290 288 287 286 284 282 282 283 282 280 279 278 275 272 272 271 270
307 310 310 308 307 309 310 312 313 313 313 312 313 311 309 309 307 306 306 306 306 304 302 299 297 295 293 290 288 287 286 284 283 282 281 282 282 280 279 276 275 272 270
303 303 302 303 303 303 305 306 306 307 308 308 308 308 308 307 306 304 304 305 304 301 300 299 297 296 294 291 289 289 288 286 284 282 282 283 283 281 282 281 277 275 272
298 299 297 299 300 300 301 303 303 303 302 303 303 302 303 303 303 302 302 302 302 300 298 298 297 297 294 291 289 288 287 285 284 284 284 284 284 283 282 282 280 279 277
298 301 299 298 300 300 300 301 302 301 299 299 299 298 298 298 298 299 300 300 300 299 297 296 296 296 295 291 289 288 286 285 284 283 283 285 285 284 285 283 282 280 278
298 300 300 298 298 298 298 299 300 298 297 296 296 296 296 296 296 296 296 297 297 296 296 296 296 296 295 292 290 288 286 284 284 282 283 283 284 284 284 283 281 282 281
296 296 297 296 296 296 296 297 296 295 294 294 294 293 292 293 294 295 296 297 296 294 294 293 293 293 292 291 289 288 286 284 284 283 281 281 280 280 280 281 280 281 282
293 294 295 293 293 293 292 293 294 292 292 292 293 293 292 291 292 292 293 293 294 294 293 293 291 291 290 289 288 286 285 284 285 284 282 280 279 278 278 279 279 280 281
291 291 292 292 291 291 291 291 291 290 289 290 290 291 291 290 291 291 290 290 292 293 293 292 290 289 288 287 285 283 281 282 283 282 281 281 280 278 278 278 279 279 279
288 289 289 290 291 290 289 289 289 289 289 292 293 291 290 289 289 290 289 289 289 291 291 291 289 287 286 285 283 282 281 281 282 281 280 281 281 279 277 277 279 279 278
288 288 288 289 290 290 290 290 289 290 291 292 293 292 291 290 289 289 288 288 289 290 290 289 288 286 284 284 283 282 282 281 282 283 282 281 281 280 278 278 278 279 279
Height
5903 5903 5903 5903 5903 5902 5902 5901 5901 5900 5900 5899 5898 5898 5897 5897 5896 5895 5894 5893 5893 5892 5891 5890 5890 5889 5889 5888 5888 5888 5887 5887 5887 5887 5887 5887 5887 5887 5886 5886 5886 5886 5886
5904 5903 5903 5903 5903 5902 5902 5901 5901 5900 5899 5898 5898 5897 5896 5895 5895 5894 5893 5891 5891 5891 5890 5889 5888 5887 5887 5886 5886 5885 5885 5885 5885 5885 5885 5885 5885 5885 5884 5884 5884 5884 5884
5904 5903 5903 5903 5903 5902 5901 5901 5900 5899 5899 5898 5897 5896 5895 5894 5893 5892 5891 5890 5889 5889 5888 5887 5886 5885 5884 5884 5883 5883 5883 5883 5882 5882 5882 5882 5882 5882 5882 5882 5881 5881 5881
5904 5903 5903 5903 5902 5901 5901 5900 5899 5899 5898 5897 5896 5895 5894 5893 5891 5891 5890 5889 5888 5887 5886 5885 5884 5883 5882 5881 5881 5881 5880 5880 5880 5880 5880 5880 5880 5880 5880 5879 5879 5879 5879
5904 5903 5903 5902 5901 5901 5900 5899 5899 5897 5897 5896 5895 5894 5893 5892 5890 5889 5888 5887 5886 5885 5883 5882 5881 5880 5880 5879 5878 5878 5878 5877 5877 5877 5877 5877 5877 5877 5877 5877 5877 5877 5877
5903 5903 5902 5901 5900 5899 5899 5898 5897 5896 5895 5895 5894 5893 5892 5890 5889 5888 5887 5885 5884 5883 5882 5880 5879 5878 5877 5876 5876 5875 5874 5874 5874 5874 5874 5874 5874 5874 5874 5874 5875 5875 5874
5903 5902 5901 5900 5899 5898 5898 5897 5897 5895 5894 5893 5892 5891 5890 5889 5887 5886 5885 5884 5882 5880 5879 5878 5877 5876 5874 5874 5873 5872 5872 5871 5871 5871 5871 5871 5871 5871 5871 5871 5871 5871 5871
5902 5901 5900 5899 5898 5897 5897 5896 5895 5894 5893 5892 5891 5890 5889 5888 5886 5884 5883 5882 5880 5878 5877 5876 5875 5873 5872 5871 5870 5870 5869 5869 5867 5867 5868 5867 5867 5867 5868 5868 5868 5868 5868
5901 5900 5899 5898 5896 5895 5895 5894 5893 5893 5891 5890 5889 5888 5887 5886 5884 5883 5881 5880 5878 5876 5875 5873 5872 5871 5870 5869 5868 5867 5866 5866 5865 5864 5864 5864 5863 5864 5864 5864 5864 5864 5864
5900 5899 5898 5897 5896 5895 5894 5893 5892 5890 5889 5888 5887 5886 5884 5883 5882 5880 5879 5877 5875 5874 5872 5871 5869 5868 5867 5866 5865 5864 5863 5863 5862 5861 5860 5860 5860 5860 5859 5860 5860 5860 5860
5899 5898 5897 5896 5894 5893 5892 5891 5890 5888 5887 5886 5885 5883 5882 5880 5879 5877 5876 5875 5873 5871 5870 5868 5867 5865 5864 5863 5862 5861 5860 5859 5859 5858 5857 5856 5856 5856 5856 5856 5856 5856 5856
5898 5897 5895 5894 5893 5891 5890 5888 5887 5886 5885 5883 5882 5881 5879 5878 5876 5874 5872 5871 5869 5868 5866 5865 5863 5862 5860 5859 5858 5857 5856 5855 5855 5854 5852 5851 5851 5851 5852 5852 5852 5852 5852
5897 5895 5894 5892 5891 5889 5887 5886 5885 5883 5882 5881 5879 5877 5876 5874 5873 5871 5869 5867 5865 5864 5862 5861 5859 5858 5857 5855 5854 5853 5852 5851 5850 5849 5848 5847 5847 5847 5847 5847 5847 5847 5847
5895 5893 5892 5890 5889 5887 5886 5884 5882 5881 5879 5877 5876 5874 5872 5870 5869 5867 5865 5863 5861 5860 5859 5857 5855 5854 5852 5851 5850 5849 5848 5847 5846 5845 5844 5843 5843 5843 5843 5843 5843 5842 5842
5893 5891 5890 5888 5887 5885 5883 5882 5879 5878 5876 5874 5873 5871 5869 5867 5865 5863 5861 5859 5858 5856 5855 5853 5852 5850 5848 5847 5846 5844 5843 5842 5841 5840 5839 5839 5838 5838 5837 5837 5837 5837 5837
5891 5889 5888 5886 5884 5882 5881 5879 5877 5875 5873 5871 5869 5867 5865 5863 5861 5859 5857 5855 5853 5852 5850 5849 5848 5846 5844 5842 5841 5839 5838 5837 5836 5836 5835 5834 5833 5833 5832 5832 5832 5832 5831
5888 5886 5885 5883 5881 5879 5878 5876 5874 5872 5870 5868 5866 5864 5861 5859 5857 5855 5853 5851 5850 5848 5846 5845 5843 5841 5839 5838 5836 5835 5833 5832 5831 5831 5830 5829 5828 5828 5827 5827 5826 5825 5825
5884 5883 5881 5880 5878 5876 5874 5872 5870 5868 5866 5864 5862 5860 5858 5855 5853 5851 5849 5847 5845 5843 5841 5840 5838 5836 5834 5833 5831 5830 5828 5827 5826 5825 5824 5824 5823 5822 5822 5821 5820 5819 5818
5880 5878 5877 5875 5873 5871 5869 5867 5865 5863 5862 5860 5858 5855 5853 5851 5848 5846 5844 5842 5840 5838 5836 5835 5833 5831 5829 5827 5826 5824 5823 5822 5821 5820 5819 5818 5818 5817 5816 5815 5814 5813 5812
5876 5874 5872 5870 5868 5866 5864 5862 5860 5858 5856 5854 5852 5850 5848 5845 5843 5841 5839 5837 5835 5833 5831 5829 5827 5826 5824 5822 5820 5819 5817 5816 5815 5814 5814 5813 5812 5811 5810 5809 5808 5807 5805
5871 5869 5867 5865 5863 5861 5859 5856 5854 5852 5850 5848 5846 5844 5842 5839 5837 5835 5833 5831 5829 5827 5825 5823 5821 5820 5818 5816 5814 5812 5811 5810 5809 5808 5807 5806 5805 5804 5803 5802 5801 5800 5799
5866 5864 5862 5859 5857 5854 5852 5850 5848 5846 5844 5842 5839 5837 5835 5833 5831 5829 5827 5825 5823 5821 5819 5817 5815 5813 5811 5810 5808 5806 5804 5803 5802 5802 5800 5799 5798 5798 5797 5796 5795 5794 5792
5860 5858 5855 5853 5851 5848 5846 5844 5841 5839 5837 5835 5833 5831 5828 5826 5824 5822 5820 5818 5816 5814 5812 5810 5808 5806 5804 5802 5801 5799 5797 5796 5795 5794 5793 5792 5791 5790 5790 5788 5788 5787 5786
5853 5851 5848 5846 5843 5841 5839 5836 5834 5831 5830 5828 5825 5823 5821 5819 5817 5815 5813 5811 5809 5807 5805 5803 5801 5799 5797 5795 5793 5792 5790 5789 5788 5787 5786 5785 5784 5783 5782 5781 5780 5779 5778
5846 5843 5841 5838 5835 5833 5831 5828 5825 5823 5821 5819 5817 5815 5813 5811 5810 5807 5806 5804 5802 5800 5797 5795 5793 5791 5789 5787 5785 5784 5783 5782 5781 5779 5778 5777 5776 5775 5774 5773 5772 5771 5770
5837 5834 5832 5830 5827 5825 5823 5820 5818 5815 5813 5811 5809 5807 5805 5803 5801 5799 5797 5796 5794 5793 5790 5788 5786 5783 5781 5779 5777 5776 5775 5774 5772 5772 5770 5769 5768 5766 5765 5765 5764 5763 5762